Location: Vibo Valentia
(38.6670°N, 16.1000°E)
Time: 14:18:57
(UTC+01:00)

STARLINK-1353 - Pass Details

Date: 02 October 2020
Orbit: 530 x 533 km, 53.0° (Epoch: 27 October)

Event Time Altitude Azimuth Distance (km) Brightness Sun altitude
Exits shadow 04:03:36 15° 34° (NE) 1,495 6.4 -33.0°
Drops below altitude 10° 04:04:22 10° 39° (NE) 1,784 6.9 -32.9°
Sets 04:06:40 0° 45° (NE) 2,678 8.1 -32.5°
